ATLAS 5 CENTAUR DEB, 43952

Orbit data source: Space-Track

ATLAS 5 CENTAUR DEB, 43952 is space debris in HEO originally from a launch on Wed, 17 Sep 2014 UTC launched from the Air Force Eastern Test Range (AFETR). Debris objects in space refer to the collection of defunct objects orbiting the Earth. Examples of debris include non-operational satellites, rocket bodies, and fragments generated from explosions, collisions, or faulty payload assembly.

Loading next visibility...
Identifier
43952, 2014-055F
Orbit
HEO
Country
Flag of USUS
Related business
Flag of USUnited Launch Alliance/Lockheed Martin (US)
Manufacturer
Unknown
Mission
Spacecraft
Bus & Motor
Unknown
Mass
Unknown
Launch date (UTC)
2014-09-17 (11 years ago)
Launch vehicle
Unknown
Launch site
Air Force Eastern Test Range (AFETR)
Object type
Payload
Rocket body
Debris
Shape & HBR
Unknown shape, 1.1 m
Radar Cross Section
RCS unknown

Expand to show TLE details & history
Last TLE update: 22 hours ago

TLE from 22 hours ago
0 ATLAS 5 CENTAUR DEB
1 43952U 14055F   26071.50230661 -.00000395  00000-0  00000+0 0  9994
2 43952  21.1862  88.9621 5121807 268.3601  35.0061  1.97471730 54125
Epoch: 2026-03-12T12:03Z
TLE epoch observation values (Epoch: 2026-03-12T12:03:19.291Z)
Latitude
-0.00002°
Longitude
98.05081°
Altitude
13,707.755 km
Speed
4.984 km/s
True Right ascension
05h 56m 07s
True Declination
0° 00' 00"
Sunlit
Object was in daylight at epoch
Visualization orbit readout
Latitude
Unknown
Longitude
Unknown
Altitude
Unknown
Speed
Unknown
Apparent Right ascension
Unknown
Apparent Declination
Unknown
Sunlit
N/A
Visualization observer readout
Local Sidereal Time
14:18:04
Azimuth
Unknown
Elevation
Unknown
Doppler factor
Unknown
Orbital elements
Apogee altitude
34,207.237 km
Perigee altitude
6,714.431 km
Semi-major axis
26,838.971 km
Eccentricity
0.51218
Inclination
21.1862°
RAAN
88.9621°
Arg. of periapsis
268.3601°
True anomaly
91.58669°
Mean anomaly
35.0061°
Eccentric anomaly
60.56334°
Mean motion
0.49362 °/min
Orbital period
729.3 mins
BSTAR
0
Loading maneuver chart data...
Computing Atmospheric mass density...

Documentation

Showing up to 5 results
|